GFSNW_prec_cthk_120.txt.gz
RH
22 19 17 13 11 9 9 13 25 17 15 23 24 25 28 27 30 37 40 47 53 57 54 52 52 46 44 43 42 42 50 48 60 56 65 77 82 96 97 90 72 60 56 54
19 17 15 14 11 11 12 20 23 20 19 31 30 32 34 38 44 48 52 50 50 52 52 63 51 52 50 54 52 59 68 57 58 53 60 70 83 72 77 85 87 72 68 55
20 19 17 14 13 14 15 21 27 26 26 31 35 36 39 41 44 41 43 47 56 65 69 67 69 68 70 66 60 62 62 63 66 61 82 79 72 80 73 66 69 73 60 55
22 22 18 14 15 16 17 21 28 26 38 37 36 38 42 51 50 48 55 64 79 81 86 80 78 76 78 73 57 63 65 64 59 53 50 60 71 73 69 68 63 57 49 48
28 22 17 14 17 18 18 26 29 29 36 35 40 44 48 50 50 57 73 83 90 84 87 98 95 79 87 78 69 68 70 63 62 55 47 57 61 60 62 58 59 56 49 44
27 22 18 19 19 19 24 24 26 34 37 41 42 46 46 50 59 63 76 90 90 76 81 74 74 73 73 70 77 73 69 67 67 68 58 51 54 41 48 52 44 44 47 35
25 22 21 20 22 23 25 26 33 39 40 41 42 42 43 54 60 70 70 75 74 69 68 64 65 66 64 68 67 73 71 71 75 73 63 67 36 38 44 44 41 37 33 26
24 22 21 22 26 24 26 30 37 42 46 42 40 41 43 52 60 67 64 68 62 70 65 64 64 62 58 52 49 57 67 76 79 81 67 56 51 39 31 32 31 33 33 42
30 25 21 25 30 28 28 34 39 46 49 45 44 45 42 53 56 61 62 59 61 62 68 75 73 67 66 75 83 86 89 84 83 78 84 78 67 71 68 62 47 52 45 48
36 32 22 27 31 34 34 37 40 53 54 47 47 44 47 54 60 62 58 54 53 56 65 73 75 75 77 89 95 95 94 98 95 87 94 80 75 73 73 69 70 59 59 82
42 34 28 27 33 36 41 45 43 56 59 56 49 44 44 51 52 62 57 52 55 53 63 74 72 83 82 92 91 96 96 96 95 92 94 91 81 77 89 85 75 87 95 99
39 33 28 29 35 39 45 49 50 58 63 60 52 39 40 44 48 54 55 54 54 58 68 78 84 90 90 92 93 92 95 98 97 95 89 83 84 87 84 89 98 97 99 99
36 32 30 32 36 43 48 52 55 62 66 62 60 40 38 36 37 46 50 51 49 58 73 85 86 87 86 92 89 95 94 96 98 97 95 96 92 88 90 95 93 96 96 94
34 32 32 35 40 48 52 53 59 64 68 69 62 39 34 37 38 40 43 45 50 56 67 80 81 83 82 88 90 92 97 97 95 97 96 97 97 95 98 98 98 97 91 88
35 33 36 41 46 54 58 54 61 66 72 71 63 46 35 34 39 40 44 47 54 60 70 77 81 78 85 90 90 96 94 97 95 96 97 98 98 98 98 98 95 95 94 89
35 36 44 46 51 55 60 64 65 68 71 74 70 45 36 40 42 50 48 50 58 67 73 75 77 81 92 91 88 94 95 98 97 96 94 97 98 95 97 96 94 94 90 91
37 46 49 53 55 57 60 68 70 66 69 75 64 46 45 49 67 74 67 62 70 73 74 75 81 86 92 89 84 91 95 98 96 93 88 90 90 89 90 91 89 86 85 83
56 57 60 61 60 64 70 75 77 73 73 76 62 47 54 68 83 88 80 77 73 74 81 88 88 90 92 88 90 90 93 92 92 88 86 85 84 83 84 83 79 77 77 78
79 76 74 71 67 67 75 76 76 76 76 77 61 53 70 74 85 90 96 94 92 91 91 89 91 87 90 91 91 93 93 90 87 86 86 85 83 82 83 81 79 78 79 80
88 86 78 73 69 75 80 86 81 78 77 76 59 54 69 69 79 84 84 89 95 94 90 91 91 90 90 93 95 95 92 88 86 82 81 79 79 78 79 78 77 76 74 75
91 84 77 76 75 89 91 88 82 76 75 70 56 53 68 70 75 78 78 94 95 95 94 96 95 91 91 94 95 94 92 87 83 82 79 76 75 74 72 70 68 67 68 70
82 75 85 90 93 95 91 85 80 75 72 71 58 56 70 79 76 82 92 95 97 96 94 98 90 88 91 93 91 92 93 87 83 80 76 73 71 70 68 67 65 64 63 64
84 94 97 97 93 96 83 73 74 76 74 67 62 70 81 83 83 88 92 95 91 88 92 87 87 87 89 87 82 80 77 73 72 68 64 62 62 61 60 61 62 62 62 62
98 99 96 94 87 74 65 64 68 69 66 69 72 80 85 90 90 93 95 92 93 92 88 87 87 86 86 81 77 74 72 70 68 66 63 61 61 60 60 60 63 65 65 64
98 95 95 78 73 67 70 73 77 76 75 73 78 83 91 94 96 95 95 96 90 87 89 87 87 86 81 76 73 71 68 66 65 65 65 65 64 63 60 59 59 61 65 67
98 98 88 78 73 77 83 81 82 80 83 81 78 91 91 97 94 95 94 89 85 87 86 84 82 80 76 75 73 72 72 71 70 68 67 66 62 60 60 60 60 60 62 66
94 88 88 85 85 81 80 84 89 89 86 79 82 86 85 94 94 91 88 87 86 85 87 85 82 82 79 75 74 73 71 69 68 67 66 65 64 64 65 67 67 65 64 64

GFSNW_prec_cthk_126.txt.gz
RH
59 51 46 42 35 26 26 35 41 13 18 29 25 26 19 15 19 23 25 25 26 30 30 29 37 40 46 52 60 65 58 57 57 53 49 57 54 94 96 89 93 84 73 65
58 50 43 33 29 30 32 37 25 23 32 38 26 18 22 20 23 22 22 22 27 29 38 53 54 59 64 62 62 64 70 88 91 70 60 59 74 81 81 92 94 90 96 68
44 43 44 33 25 29 29 33 36 23 25 22 26 24 26 24 23 21 22 27 34 50 51 54 65 75 69 69 82 77 68 53 67 62 64 77 69 66 65 81 85 82 75 78
47 45 37 30 24 26 31 30 34 31 33 25 25 28 27 30 29 28 33 39 52 54 60 67 67 64 56 58 68 62 87 63 52 48 51 57 51 51 52 56 77 74 71 75
47 38 27 23 19 22 22 24 24 27 24 24 30 27 30 26 34 32 41 43 45 53 72 73 59 51 51 54 62 84 87 95 95 93 64 55 51 51 48 46 49 62 65 69
40 36 30 20 18 28 28 24 26 30 25 31 34 35 31 30 29 40 43 45 52 49 56 43 44 46 48 49 53 54 63 68 75 74 62 57 52 53 50 41 46 49 60 60
37 32 17 22 26 27 26 28 28 35 33 32 32 29 27 31 38 45 46 46 47 44 37 40 44 53 63 76 91 76 75 82 77 73 70 75 62 67 57 48 49 49 49 49
35 22 26 22 23 27 27 27 32 37 37 32 29 31 26 34 38 43 50 44 41 36 39 49 55 73 73 78 81 77 79 84 83 82 70 60 60 78 69 58 58 74 70 82
30 33 20 21 22 26 26 28 29 37 41 33 32 31 33 43 54 54 49 41 33 37 43 58 75 92 71 75 70 75 79 87 98 80 91 76 96 93 83 70 64 84 81 82
40 26 24 21 20 26 29 31 30 38 47 35 32 37 46 43 45 49 55 43 41 40 42 63 74 68 72 79 85 87 84 83 91 93 91 90 93 84 65 85 98 98 96 93
33 28 19 22 20 28 31 32 31 37 43 43 33 39 44 38 38 51 62 49 64 41 47 63 68 80 81 86 83 96 95 90 85 89 86 91 89 78 87 97 96 94 96 98
43 32 21 23 25 27 30 35 36 34 40 47 44 40 34 39 46 48 42 45 44 44 48 58 61 74 71 80 88 92 92 98 98 98 97 97 98 96 98 98 98 97 97 97
53 42 32 22 25 29 32 36 35 36 42 39 41 41 43 30 26 35 37 56 50 54 49 49 60 69 64 80 85 87 90 98 94 97 95 93 98 98 98 98 98 98 98 98
54 44 39 34 24 30 34 44 42 41 47 50 53 50 50 41 33 34 29 46 50 44 43 46 51 62 64 73 77 84 96 97 93 96 93 89 95 98 97 97 98 97 96 93
52 46 41 37 26 31 35 43 46 47 54 59 56 52 49 46 39 33 33 40 46 47 48 50 52 55 60 68 75 98 89 93 96 96 98 98 98 98 96 95 90 87 83 80
57 48 41 34 29 38 43 45 45 47 50 56 56 57 52 47 39 39 41 47 53 55 52 50 51 56 66 78 79 88 90 91 94 96 96 98 96 94 90 86 83 82 77 76
58 49 46 35 35 48 52 51 53 46 51 58 55 53 53 44 45 45 51 60 64 61 58 52 53 55 69 75 77 90 86 87 92 91 91 93 90 86 84 81 76 76 71 70
53 48 43 41 48 53 55 49 45 49 57 59 58 50 50 45 49 70 78 75 74 65 60 60 65 73 80 76 82 80 84 85 87 85 87 85 83 80 76 73 71 72 73 73
59 51 50 58 54 51 54 57 52 57 63 66 60 56 70 70 68 97 98 81 80 75 76 75 76 78 83 83 78 81 84 84 85 83 83 79 78 76 75 73 74 73 70 67
58 61 65 63 50 56 55 56 59 61 66 66 60 53 60 54 78 94 80 78 78 87 82 81 83 81 79 80 82 82 83 84 83 82 81 79 77 76 74 72 71 67 63 61
66 66 62 60 54 54 59 63 64 66 66 62 58 52 53 51 64 81 83 86 86 88 87 91 90 94 86 81 81 82 84 82 82 83 82 78 76 72 66 61 59 57 56 57
60 62 62 65 63 66 66 69 64 68 64 61 61 60 57 63 59 67 76 78 82 79 89 96 85 90 92 83 79 78 79 78 78 78 75 72 68 65 61 59 57 56 54 54
70 69 69 68 71 74 66 68 70 68 65 74 69 66 67 70 66 68 78 82 78 81 90 83 83 84 80 77 76 77 79 74 73 70 68 62 57 55 55 55 54 56 56 55
97 91 90 84 87 72 65 64 69 65 73 75 75 70 66 65 68 73 80 73 76 82 84 86 87 83 79 80 80 79 81 77 69 66 63 60 56 54 53 53 52 52 52 51
94 90 95 83 82 80 80 81 79 75 76 85 84 77 75 83 87 78 82 91 86 83 94 97 88 81 79 79 81 79 75 70 69 67 63 61 58 55 53 53 53 52 54 55
93 89 95 89 83 93 87 85 90 86 88 92 92 92 85 87 88 90 88 82 84 97 92 87 84 84 84 83 79 77 73 71 68 63 60 58 57 55 55 58 59 58 61 64
78 83 93 98 90 91 87 85 85 86 88 97 94 95 86 83 88 87 87 94 95 93 87 86 86 86 86 82 80 78 74 69 64 62 59 59 61 58 59 58 60 63 70 74

GFSNW_prec_cthk_129.txt.gz
RH
88 79 67 52 45 43 40 44 48 23 30 39 36 26 21 18 18 20 24 23 26 25 24 28 34 40 50 49 49 49 54 62 56 54 45 62 69 81 94 97 96 91 89 81
77 72 60 50 40 41 45 49 29 25 39 46 34 30 27 20 23 23 22 21 21 26 38 43 40 44 48 53 52 58 60 75 78 59 67 68 77 75 74 91 98 95 96 87
76 61 49 45 47 47 49 38 41 35 39 36 32 24 25 25 22 19 20 24 34 43 40 43 48 48 50 47 47 53 66 77 84 82 65 66 89 76 63 69 83 81 75 73
65 57 57 48 38 43 48 48 40 30 36 27 25 25 24 25 29 26 26 39 42 39 42 49 51 45 41 38 44 63 71 84 83 66 56 61 66 62 55 60 54 73 57 68
66 56 43 40 46 48 34 32 37 37 32 24 23 26 28 26 29 28 37 33 31 42 55 55 45 38 44 52 53 59 71 75 75 65 63 74 62 54 51 49 47 48 51 61
49 50 44 35 37 32 33 37 30 28 24 26 32 34 30 33 26 30 31 32 38 42 39 32 31 45 57 64 64 87 98 75 73 67 58 54 57 62 66 70 47 55 61 82
47 43 38 34 32 35 33 30 28 28 30 30 34 32 29 27 27 31 30 37 37 33 25 30 37 51 62 79 87 89 83 79 80 75 70 76 84 83 78 83 82 81 82 83
52 41 33 37 36 32 34 26 27 31 35 32 29 27 25 25 29 32 36 35 33 27 30 41 50 76 75 87 76 76 73 80 88 82 80 68 88 86 90 87 88 87 91 84
47 41 35 30 32 30 25 26 28 30 35 32 29 26 26 36 40 44 46 38 31 31 37 50 66 85 73 74 77 75 73 78 96 91 92 95 90 86 81 82 94 94 95 89
47 33 23 28 34 25 25 25 29 32 34 31 29 36 36 32 40 49 52 45 35 33 42 62 68 70 69 84 85 88 81 81 94 91 96 97 91 80 73 77 95 92 94 92
44 26 31 33 26 27 24 26 27 30 35 34 32 36 41 37 38 44 49 52 46 36 43 61 60 66 73 79 79 91 90 91 92 89 84 87 90 83 85 97 98 95 96 98
37 32 36 23 27 29 26 24 24 29 34 38 33 33 35 36 34 37 40 44 44 40 47 52 51 69 69 75 89 87 91 96 95 97 95 95 97 98 97 98 98 98 98 98
38 38 32 29 23 26 29 25 23 24 28 31 32 31 33 31 33 38 36 45 47 43 38 39 44 55 59 73 82 83 91 94 94 95 97 95 98 98 98 98 98 97 96 96
57 43 36 24 26 26 31 31 28 29 35 42 46 44 40 40 30 25 26 43 44 42 37 36 41 49 51 63 71 82 90 96 90 94 95 92 97 97 97 97 94 90 85 83
56 55 45 30 25 27 32 40 38 34 37 46 47 45 44 45 39 31 30 32 32 35 38 43 47 43 51 57 71 95 87 92 92 97 98 98 97 96 94 90 86 84 77 73
58 56 49 38 26 26 35 39 43 37 36 37 47 50 49 45 44 38 34 33 38 42 47 50 46 39 58 72 80 80 84 91 90 94 93 97 95 94 90 85 80 79 73 70
64 59 49 40 28 34 38 45 45 34 34 41 45 49 50 46 42 40 40 45 54 60 61 55 49 48 59 71 79 80 80 87 91 88 89 91 92 88 83 77 75 73 71 69
68 61 55 45 33 43 43 47 40 35 41 48 50 52 52 48 43 58 65 74 65 65 63 56 55 63 75 81 83 78 77 85 86 85 84 83 81 78 76 75 74 70 67 68
63 66 61 47 46 47 49 52 43 39 43 52 53 55 70 64 57 73 83 83 73 70 72 69 72 81 83 85 83 77 78 82 84 82 82 80 77 75 73 71 70 69 67 63
70 67 61 52 52 50 47 53 45 42 45 51 53 51 64 62 66 82 81 78 76 80 84 81 83 85 85 84 82 78 79 80 81 80 82 79 77 74 73 71 66 59 56 56
64 67 61 54 57 54 58 56 47 46 46 48 51 51 57 55 59 68 76 83 81 84 89 95 94 95 93 89 84 79 75 75 77 76 77 78 76 72 69 63 57 53 54 54
55 55 63 64 61 61 62 59 49 50 48 51 58 56 54 54 60 61 66 77 79 78 84 96 96 95 95 92 83 77 75 74 75 74 72 68 65 62 58 54 51 49 49 48
76 73 72 67 68 70 62 59 54 48 47 61 67 68 67 68 70 72 68 71 74 73 88 93 91 90 86 83 78 77 75 75 76 76 74 69 62 56 53 51 50 49 48 47
85 81 80 70 69 59 50 43 42 46 57 68 73 74 71 72 71 72 70 68 72 78 81 85 88 90 84 81 77 75 76 78 77 74 68 63 59 56 53 53 51 49 45 45
79 75 70 62 63 59 61 57 63 72 81 82 86 80 78 79 78 77 74 85 82 81 86 94 95 87 86 85 84 82 82 80 77 74 68 64 59 54 52 51 52 51 49 50
91 77 76 72 67 73 84 87 90 87 87 89 92 92 91 89 85 88 88 87 85 95 98 93 89 87 87 88 88 86 84 83 78 73 67 62 58 54 56 56 56 54 56 55
89 85 81 86 86 88 89 88 89 92 90 98 98 98 88 85 87 91 92 93 94 98 97 93 90 89 88 88 88 88 85 82 78 73 68 64 61 59 57 56 59 63 63 62

GFSNW_prec_cthk_132.txt.gz
RH
87 87 91 82 65 56 53 58 60 40 34 44 48 36 32 29 25 18 18 23 27 23 23 25 31 37 40 43 42 46 46 51 54 49 53 70 81 80 94 93 94 97 96 89
88 94 85 69 62 57 61 58 39 37 49 51 44 37 33 25 20 25 27 26 21 22 32 35 38 36 43 44 43 45 52 61 70 53 54 58 68 76 79 89 96 91 96 71
92 92 78 64 58 57 59 48 50 51 51 41 37 36 36 33 27 26 19 19 26 33 36 38 39 45 42 35 32 41 59 68 74 77 70 66 70 66 66 73 87 77 72 62
92 82 70 56 52 64 63 56 51 48 48 45 41 36 31 28 25 22 25 32 37 39 35 42 46 39 32 39 42 53 60 70 68 72 71 70 67 69 61 59 61 66 48 61
83 74 61 60 63 61 62 58 47 45 43 41 41 31 25 25 26 24 31 34 34 35 43 41 38 33 43 54 53 57 61 75 76 74 66 62 60 64 62 70 77 64 63 75
77 64 50 45 64 65 53 42 46 40 41 31 26 28 26 30 29 24 28 28 31 35 31 26 24 40 61 68 73 68 72 81 74 68 63 65 72 85 85 94 97 91 80 81
63 57 59 63 56 47 50 56 44 37 35 30 30 28 25 25 22 26 29 32 33 28 22 25 41 59 70 71 69 71 79 76 82 83 71 78 87 81 91 95 95 93 91 89
70 56 47 48 54 57 47 40 37 30 36 29 27 28 26 20 27 30 33 30 27 21 27 46 61 68 71 69 70 71 75 78 85 90 85 75 74 83 89 91 91 93 92 82
57 59 55 58 48 33 36 34 28 28 24 28 26 25 21 29 33 34 36 34 28 23 35 50 63 75 66 67 71 66 68 78 85 87 90 90 83 80 86 82 93 88 91 89
47 40 44 41 35 40 38 35 25 23 23 27 25 24 28 30 36 40 41 37 33 27 38 58 64 64 63 74 80 84 78 79 87 83 88 91 86 83 80 84 89 90 92 94
47 41 46 46 36 35 30 25 26 25 26 29 28 30 28 31 33 39 37 42 37 31 39 54 58 60 66 69 73 81 85 88 87 86 82 82 89 86 90 97 97 97 97 97
44 46 44 33 35 22 21 23 26 28 26 30 31 32 34 31 31 35 37 39 39 37 41 43 45 59 66 65 80 82 83 90 90 90 89 90 94 97 97 98 98 97 98 97
47 40 31 36 33 21 21 22 22 26 27 30 30 29 31 31 33 32 37 36 37 37 34 35 38 46 53 62 70 77 84 91 93 91 93 94 96 97 97 97 97 97 93 89
44 36 31 40 26 21 19 18 19 20 28 38 39 37 35 33 27 30 34 35 34 37 37 33 36 39 42 54 59 74 80 92 90 93 96 95 95 96 97 94 92 89 84 78
44 35 42 33 24 28 25 23 24 26 28 35 40 39 39 38 32 26 25 29 35 37 38 41 38 37 40 50 59 81 79 87 88 92 95 97 98 95 93 90 86 83 78 73
55 42 42 31 30 28 26 29 28 26 27 27 41 43 44 40 40 34 27 25 29 34 41 45 46 42 41 59 69 72 74 78 86 89 89 93 93 91 89 85 81 76 71 69
61 59 48 36 27 27 27 30 29 27 26 28 38 45 44 41 38 37 35 42 47 54 59 60 54 47 50 60 67 73 75 78 87 88 86 90 88 87 84 80 76 72 68 65
59 63 50 41 32 30 30 30 28 33 32 32 39 47 44 41 42 48 53 64 63 64 67 62 56 50 60 69 72 75 76 77 80 85 84 85 84 80 77 73 70 67 65 63
68 63 53 44 42 37 38 38 32 37 34 35 37 45 53 52 51 60 70 72 73 67 67 65 66 71 78 76 79 76 76 78 81 83 84 86 83 77 74 72 71 69 62 56
71 58 57 56 50 42 38 41 32 39 34 34 38 46 56 56 59 69 73 76 73 73 76 79 83 82 78 83 83 78 78 77 77 79 79 76 77 78 75 70 65 57 51 51
66 59 65 60 54 46 42 42 37 43 39 35 38 43 56 56 62 67 71 77 75 77 75 89 93 91 90 88 89 88 81 74 74 73 75 74 72 68 65 61 56 51 48 47
69 66 66 64 59 52 50 49 43 50 45 43 47 48 50 57 60 60 70 73 74 72 79 88 94 95 97 94 95 87 80 77 74 73 73 74 73 68 61 56 54 51 49 48
71 67 71 67 65 60 57 57 54 54 41 46 52 58 58 60 63 69 71 74 72 68 76 81 85 86 89 89 85 83 81 76 73 72 75 74 68 61 58 56 54 52 48 45
65 65 68 68 64 57 53 49 51 48 45 47 56 65 67 69 71 76 74 67 71 79 78 74 75 79 84 82 81 81 80 78 76 76 77 74 69 63 60 56 54 51 47 46
71 65 64 60 62 62 62 59 59 54 54 61 71 74 70 74 77 76 74 80 78 77 77 82 82 86 84 85 85 85 86 85 83 84 82 77 71 66 62 58 54 50 51 52
79 75 76 71 72 72 72 69 66 66 71 77 81 82 79 85 83 85 82 86 85 88 94 98 95 92 91 90 90 89 87 89 90 88 83 76 71 66 62 59 56 55 57 56
78 77 75 72 67 66 64 64 72 79 85 90 91 90 86 86 89 87 88 91 92 93 96 97 97 93 92 90 89 89 91 91 89 85 79 75 70 67 64 60 56 58 63 64